This is the latest recevied weather packets stored in our database for station/object KI6PPU. If no packets are shown the sender has not sent any weather packets the latest 10 day(s).
| Time | Temp. | Humidity | Pressure | Rain* | Wind** | Luminosity | Snow |
|---|---|---|---|---|---|---|---|
| 1778123602 | 16.11° C | 86% | 1020.6 hPa | 0 mm | - | 0 W/m² | - |
| 1778123298 | 16.11° C | 86% | 1020.4 hPa | 0 mm | - | 0 W/m² | - |
| 1778122996 | 16.67° C | 84% | 1020.5 hPa | 0 mm | - | 0 W/m² | - |
| 1778122693 | 16.67° C | 84% | 1020.5 hPa | 0 mm | - | 0 W/m² | - |
| 1778122390 | 17.22° C | 82% | 1020.3 hPa | 0 mm | - | 2 W/m² | - |
| 1778122088 | 17.78° C | 82% | 1020.2 hPa | 0 mm | - | 6 W/m² | - |
| 1778121785 | 17.78° C | 82% | 1020.6 hPa | 0 mm | - | 9 W/m² | - |
| 1778121481 | 17.78° C | 81% | 1020.3 hPa | 0 mm | - | 11 W/m² | - |
| 1778121177 | 18.33° C | 81% | 1020.2 hPa | 0 mm | - | 13 W/m² | - |
| 1778120875 | 18.33° C | 79% | 1020.3 hPa | 0 mm | - | 17 W/m² | - |
| 1778120571 | 18.89° C | 78% | 1020.2 hPa | 0 mm | - | 20 W/m² | - |
| 1778120267 | 19.44° C | 76% | 1020.2 hPa | 0 mm | - | 21 W/m² | - |
| 1778119963 | 19.44° C | 77% | 1020.3 hPa | 0 mm | - | 23 W/m² | - |
| 1778119661 | 19.44° C | 73% | 1020.3 hPa | 0 mm | - | 27 W/m² | - |
| 1778119357 | 20° C | 76% | 1020.1 hPa | 0 mm | - | 28 W/m² | - |
| 1778119055 | 20° C | 75% | 1020.3 hPa | 0 mm | - | 31 W/m² | - |
| 1778118752 | 20° C | 72% | 1020.3 hPa | 0 mm | - | 32 W/m² | - |
| 1778118449 | 20° C | 72% | 1020.4 hPa | 0 mm | - | 33 W/m² | - |
| 1778118145 | 20.56° C | 71% | 1020.2 hPa | 0 mm | - | 35 W/m² | - |
| 1778117842 | 20.56° C | 71% | 1020.1 hPa | 0 mm | - | 37 W/m² | - |
| 1778117539 | 20.56° C | 71% | 1020.2 hPa | 0 mm | - | 38 W/m² | - |
| 1778117236 | 20.56° C | 71% | 1020.3 hPa | 0 mm | - | 39 W/m² | - |
| 1778116932 | 20.56° C | 70% | 1020.3 hPa | 0 mm | - | 40 W/m² | - |
| 1778116630 | 20.56° C | 70% | 1020.3 hPa | 0 mm | - | 42 W/m² | - |
| 1778116326 | 20.56° C | 70% | 1020.2 hPa | 0 mm | - | 44 W/m² | - |
* Rain latest hour (hover to see other rain measurements)
** Current wind speed in m/s (hover to see current wind gust speed)